Location: Newark
(46.1292°N, 1.0086°W)
Time: 19:41:28
(UTC+00:00)

Vanguard 2 Rocket - Visible Passes

Search period start: 11 November 2019 00:00
Search period end: 21 November 2019 00:00
Orbit: 554 x 3326 km, 32.9° (Epoch: 11 November)

Date Brightness Start Highest point End Pass type
(mag) Time Alt. Az. Time Alt. Az. Time Alt. Az.
11 Nov 8.7 03:59:50 27° S 04:02:01 31° SSE 04:11:26 10° ESE visible
11 Nov 9.4 06:07:06 10° WSW 06:15:21 40° S 06:28:54 10° ESE visible
12 Nov 9.1 03:03:47 22° SE 03:03:47 22° SE 03:09:29 10° ESE visible
12 Nov 8.9 05:09:36 16° SW 05:15:20 38° S 05:26:58 10° ESE visible
13 Nov 8.5 04:13:32 28° SSW 04:15:40 33° SSE 04:25:07 10° ESE visible
13 Nov 9.4 06:21:15 10° WSW 06:29:09 35° S 06:41:47 10° SE visible
14 Nov 8.9 03:17:28 25° SE 03:17:28 25° SE 03:23:28 10° ESE visible
14 Nov 8.9 05:23:17 14° WSW 05:29:08 35° S 05:40:09 10° ESE visible
15 Nov 9.8 02:21:24 11° ESE 02:21:24 11° ESE 02:21:54 10° ESE visible
15 Nov 8.4 04:27:13 27° SSW 04:29:26 32° S 04:38:35 10° ESE visible
16 Nov 8.7 03:31:09 26° SSE 03:31:09 26° SSE 03:37:11 10° ESE visible
16 Nov 9.0 05:36:57 12° WSW 05:43:00 29° S 05:53:01 10° SE visible
17 Nov 9.6 02:35:04 12° ESE 02:35:04 12° ESE 02:36:00 10° ESE visible
17 Nov 8.5 04:40:53 24° SSW 04:43:17 29° S 04:51:47 10° SE visible
18 Nov 8.7 03:44:49 25° SSE 03:44:49 25° SSE 03:50:41 10° ESE visible
18 Nov 9.1 05:51:09 10° WSW 05:56:55 23° SSW 06:05:20 10° SSE visible
19 Nov 9.5 02:48:45 13° SE 02:48:45 13° SE 02:49:47 10° ESE visible
19 Nov 8.7 04:54:34 19° SW 04:57:12 24° S 05:04:36 10° SE visible
20 Nov 8.7 03:58:31 22° S 03:58:31 22° S 04:03:53 10° SE visible
20 Nov 9.3 06:06:22 10° SW 06:10:52 16° SSW 06:16:44 10° SSE visible
